| time (UTC) | temp F | wind direction | speed knots | gust knots | rain 1hr in | rain 24hr in | rain mn in | humidity % | barometer mb |
| 20260509024029 | 66 | 79 | 1.7 | 3.5 | 0.00 | 0.00 | 0.00 | 47 | 1030.8 |
| 20260509023026 | 65 | 94 | 2.6 | 6.1 | 0.00 | 0.00 | 0.00 | 49 | 1030.9 |
| 20260509022022 | 65 | 129 | 1.7 | 4.3 | 0.00 | 0.00 | 0.00 | 49 | 1031.0 |
| 20260509021019 | 64 | 91 | 1.7 | 5.2 | 0.00 | 0.00 | 0.00 | 50 | 1031.0 |
| 20260509020017 | 64 | 127 | 2.6 | 4.3 | 0.00 | 0.00 | 0.00 | 52 | 1031.0 |
| 20260509015033 | 63 | 152 | 1.7 | 6.1 | 0.00 | 0.00 | 0.00 | 52 | 1031.0 |
| 20260509014031 | 63 | 151 | 2.6 | 5.2 | 0.00 | 0.00 | 0.00 | 54 | 1031.1 |
| 20260509013027 | 62 | 153 | 2.6 | 4.3 | 0.00 | 0.00 | 0.00 | 54 | 1031.3 |
| 20260509012024 | 61 | 134 | 1.7 | 3.5 | 0.00 | 0.00 | 0.00 | 55 | 1031.5 |
| 20260509011021 | 61 | 150 | 1.7 | 4.3 | 0.00 | 0.00 | 0.00 | 56 | 1031.5 |
| 20260509010017 | 61 | 132 | 1.7 | 4.3 | 0.00 | 0.00 | 0.00 | 57 | 1031.4 |
| 20260509005035 | 60 | 148 | 1.7 | 3.5 | 0.00 | 0.00 | 0.00 | 58 | 1031.5 |
| 20260509004032 | 59 | 87 | 1.7 | 4.3 | 0.00 | 0.00 | 0.00 | 60 | 1031.6 |
| 20260509003029 | 58 | 63 | 3.5 | 5.2 | 0.00 | 0.00 | 0.00 | 62 | 1031.4 |
| 20260509002026 | 57 | 189 | 1.7 | 4.3 | 0.00 | 0.00 | 0.00 | 65 | 1031.3 |
| 20260509001021 | 56 | 305 | 1.7 | 3.5 | 0.00 | 0.00 | 0.00 | 69 | 1031.2 |
| 20260509000017 | 55 | 8 | 3.5 | 7.8 | 0.00 | 0.00 | 0.00 | 71 | 1031.2 |
| 20260508235034 | 54 | 176 | 1.7 | 3.5 | 0.00 | 0.00 | 0.00 | 72 | 1031.3 |
| 20260508234030 | 52 | 197 | 2.6 | 4.3 | 0.00 | 0.00 | 0.00 | 75 | 1031.1 |
| 20260508233027 | 51 | 333 | 2.6 | 3.5 | 0.00 | 0.00 | 0.00 | 77 | 1031.1 |
| 20260508232023 | 50 | 18 | 4.3 | 6.1 | 0.00 | 0.00 | 0.00 | 77 | 1031.1 |
| 20260508231020 | 50 | 337 | 3.5 | 5.2 | 0.00 | 0.00 | 0.00 | 79 | 1031.0 |
| 20260508230017 | 49 | 120 | 2.6 | 3.5 | 0.00 | 0.00 | 0.00 | 80 | 1031.0 |
| 20260508225035 | 48 | 225 | 0.9 | 3.5 | 0.00 | 0.00 | 0.00 | 80 | 1030.9 |
| 20260508224032 | 48 | 159 | 2.6 | 4.3 | 0.00 | 0.00 | 0.00 | 78 | 1030.9 |
| 20260508223028 | 48 | 111 | 2.6 | 6.1 | 0.00 | 0.00 | 0.00 | 77 | 1030.8 |
| 20260508222023 | 49 | 47 | 0.9 | 2.6 | 0.00 | 0.00 | 0.00 | 76 | 1030.8 |
| 20260508221019 | 49 | 231 | 2.6 | 4.3 | 0.00 | 0.00 | 0.00 | 75 | 1030.7 |
| 20260508220016 | 50 | 19 | 3.5 | 5.2 | 0.00 | 0.00 | 0.00 | 74 | 1030.8 |
| 20260508215032 | 50 | 76 | 1.7 | 4.3 | 0.00 | 0.00 | 0.00 | 74 | 1030.7 |
| 20260508214030 | 51 | 1 | 3.5 | 5.2 | 0.00 | 0.00 | 0.00 | 73 | 1030.7 |
| 20260508213026 | 52 | 73 | 3.5 | 5.2 | 0.00 | 0.00 | 0.00 | 72 | 1030.5 |
| 20260508212023 | 52 | 187 | 4.3 | 7.0 | 0.00 | 0.00 | 0.00 | 71 | 1030.5 |
| 20260508211020 | 52 | 20 | 1.7 | 3.5 | 0.00 | 0.00 | 0.00 | 72 | 1030.5 |
| 20260508210016 | 52 | 126 | 0.9 | 5.2 | 0.00 | 0.00 | 0.00 | 70 | 1030.3 |
| 20260508205032 | 53 | 223 | 3.5 | 6.1 | 0.00 | 0.00 | 0.00 | 68 | 1030.2 |
| 20260508204029 | 54 | 29 | 1.7 | 3.5 | 0.00 | 0.00 | 0.00 | 68 | 1030.1 |
| 20260508202022 | 54 | 67 | 0.0 | 1.7 | 0.00 | 0.00 | 0.00 | 66 | 1030.1 |
| 20260508201018 | 55 | 358 | 0.9 | 2.6 | 0.00 | 0.00 | 0.00 | 66 | 1029.9 |
| 20260508200016 | 54 | 29 | 0.9 | 3.5 | 0.00 | 0.00 | 0.00 | 68 | 1029.9 |
| 20260508195032 | 53 | 319 | 0.0 | 1.7 | 0.00 | 0.00 | 0.00 | 70 | 1029.9 |
| 20260508194029 | 52 | 334 | 0.0 | 1.7 | 0.00 | 0.00 | 0.00 | 71 | 1029.8 |
| 20260508193025 | 51 | 284 | 0.0 | 1.7 | 0.00 | 0.00 | 0.00 | 74 | 1029.7 |
| 20260508192023 | 51 | 295 | 0.0 | 1.7 | 0.00 | 0.00 | 0.00 | 74 | 1029.7 |
| 20260508191020 | 51 | 67 | 0.0 | 1.7 | 0.00 | 0.00 | 0.00 | 73 | 1029.8 |
| 20260508190016 | 51 | 50 | 0.9 | 1.7 | 0.00 | 0.00 | 0.00 | 73 | 1029.8 |
| 20260508185034 | 51 | 19 | 0.9 | 1.7 | 0.00 | 0.00 | 0.00 | 72 | 1029.7 |
| 20260508184031 | 52 | 44 | 0.9 | 2.6 | 0.00 | 0.00 | 0.00 | 71 | 1029.7 |
| 20260508183029 | 53 | 34 | 1.7 | 3.5 | 0.00 | 0.00 | 0.00 | 70 | 1029.8 |
| 20260508182025 | 52 | 39 | 0.9 | 2.6 | 0.00 | 0.00 | 0.00 | 70 | 1029.7 |
| 20260508181022 | 53 | 58 | 0.9 | 2.6 | 0.00 | 0.00 | 0.00 | 69 | 1029.8 |
| 20260508180018 | 53 | 56 | 0.9 | 2.6 | 0.00 | 0.00 | 0.00 | 69 | 1029.8 |
| 20260508175034 | 52 | 46 | 0.9 | 1.7 | 0.00 | 0.00 | 0.00 | 70 | 1029.7 |
| 20260508174031 | 52 | 327 | 0.0 | 1.7 | 0.00 | 0.00 | 0.00 | 71 | 1029.6 |
| 20260508173027 | 52 | 341 | 0.9 | 1.7 | 0.00 | 0.00 | 0.00 | 71 | 1029.6 |
| 20260508172023 | 52 | 25 | 0.9 | 1.7 | 0.00 | 0.00 | 0.00 | 70 | 1029.7 |
| 20260508171020 | 53 | 55 | 0.9 | 1.7 | 0.00 | 0.00 | 0.00 | 69 | 1029.7 |
| 20260508170035 | 53 | 56 | 0.9 | 2.6 | 0.00 | 0.00 | 0.00 | 67 | 1029.8 |
| 20260508165032 | 54 | 75 | 0.9 | 1.7 | 0.00 | 0.00 | 0.00 | 66 | 1029.8 |
| 20260508164029 | 54 | 63 | 0.9 | 1.7 | 0.00 | 0.00 | 0.00 | 65 | 1029.7 |
| 20260508163024 | 55 | 68 | 0.9 | 1.7 | 0.00 | 0.00 | 0.00 | 64 | 1029.6 |
| 20260508162020 | 55 | 39 | 0.9 | 1.7 | 0.00 | 0.00 | 0.00 | 63 | 1029.4 |
| 20260508161016 | 56 | 60 | 0.9 | 1.7 | 0.00 | 0.00 | 0.00 | 62 | 1029.4 |
| 20260508160030 | 56 | 58 | 0.9 | 1.7 | 0.00 | 0.00 | 0.00 | 62 | 1029.4 |
| 20260508155027 | 55 | 36 | 0.9 | 1.7 | 0.00 | 0.00 | 0.00 | 66 | 1029.4 |
| 20260508154022 | 52 | 16 | 0.9 | 2.6 | 0.00 | 0.00 | 0.00 | 72 | 1029.7 |
| 20260508153019 | 53 | 44 | 0.9 | 2.6 | 0.00 | 0.00 | 0.00 | 71 | 1029.7 |
| 20260508152016 | 54 | 54 | 0.9 | 1.7 | 0.00 | 0.00 | 0.00 | 70 | 1029.6 |
| 20260508151033 | 54 | 55 | 0.9 | 2.6 | 0.00 | 0.00 | 0.00 | 69 | 1029.7 |
| 20260508150029 | 55 | 20 | 0.9 | 1.7 | 0.00 | 0.00 | 0.00 | 68 | 1029.8 |
| 20260508145025 | 56 | 78 | 0.9 | 1.7 | 0.00 | 0.00 | 0.00 | 65 | 1029.7 |
| 20260508144020 | 57 | 96 | 0.0 | 1.7 | 0.00 | 0.00 | 0.00 | 63 | 1029.8 |
| 20260508143017 | 58 | 85 | 0.9 | 1.7 | 0.00 | 0.00 | 0.00 | 61 | 1029.8 |
| 20260508142033 | 59 | 55 | 0.0 | 1.7 | 0.00 | 0.00 | 0.00 | 59 | 1029.8 |
| 20260508141030 | 59 | 74 | 0.0 | 1.7 | 0.00 | 0.00 | 0.00 | 58 | 1029.6 |
| 20260508140026 | 59 | 91 | 0.0 | 1.7 | 0.00 | 0.00 | 0.00 | 60 | 1029.8 |
| 20260508135022 | 58 | 59 | 0.0 | 1.7 | 0.00 | 0.00 | 0.00 | 63 | 1029.8 |
| 20260508134018 | 58 | 67 | 0.0 | 1.7 | 0.00 | 0.00 | 0.00 | 65 | 1029.9 |
| 20260508133034 | 59 | 88 | 0.0 | 0.9 | 0.00 | 0.00 | 0.00 | 62 | 1029.9 |
| 20260508132032 | 58 | 75 | 0.9 | 4.3 | 0.00 | 0.00 | 0.00 | 65 | 1029.8 |
| 20260508131030 | 59 | 87 | 0.0 | 1.7 | 0.00 | 0.00 | 0.00 | 63 | 1029.7 |
| 20260508130025 | 60 | 99 | 0.9 | 2.6 | 0.00 | 0.00 | 0.00 | 62 | 1029.8 |
| 20260508125022 | 60 | 107 | 0.0 | 1.7 | 0.00 | 0.00 | 0.00 | 60 | 1029.6 |
| 20260508124020 | 61 | 106 | 0.9 | 2.6 | 0.00 | 0.00 | 0.00 | 58 | 1029.5 |
| 20260508123016 | 62 | 79 | 0.9 | 3.5 | 0.00 | 0.00 | 0.00 | 58 | 1029.6 |
| 20260508122034 | 62 | 81 | 0.9 | 3.5 | 0.00 | 0.00 | 0.00 | 58 | 1029.5 |
| 20260508121030 | 61 | 90 | 0.9 | 2.6 | 0.00 | 0.00 | 0.00 | 60 | 1029.4 |
| 20260508120027 | 60 | 70 | 0.0 | 1.7 | 0.00 | 0.00 | 0.00 | 61 | 1029.5 |
| 20260508115024 | 61 | 45 | 0.0 | 2.6 | 0.00 | 0.00 | 0.00 | 60 | 1029.6 |
| 20260508114020 | 60 | 78 | 0.9 | 2.6 | 0.00 | 0.00 | 0.00 | 62 | 1029.6 |
| 20260508113018 | 59 | 126 | 0.9 | 1.7 | 0.00 | 0.00 | 0.00 | 64 | 1029.6 |
| 20260508112035 | 59 | 101 | 0.9 | 1.7 | 0.00 | 0.00 | 0.00 | 64 | 1029.6 |
| 20260508111030 | 60 | 79 | 0.9 | 1.7 | 0.00 | 0.00 | 0.00 | 63 | 1029.6 |
| 20260508110026 | 61 | 101 | 0.9 | 1.7 | 0.00 | 0.00 | 0.00 | 62 | 1029.6 |
| 20260508105022 | 62 | 146 | 0.0 | 1.7 | 0.00 | 0.00 | 0.00 | 59 | 1029.5 |
| 20260508104018 | 63 | 113 | 0.9 | 1.7 | 0.00 | 0.00 | 0.00 | 57 | 1029.5 |
| 20260508103035 | 64 | 137 | 0.9 | 1.7 | 0.00 | 0.00 | 0.00 | 56 | 1029.5 |
| 20260508102032 | 65 | 138 | 0.9 | 2.6 | 0.00 | 0.00 | 0.00 | 54 | 1029.3 |
| 20260508101030 | 66 | 135 | 1.7 | 3.5 | 0.00 | 0.00 | 0.00 | 52 | 1029.3 |
| 20260508100026 | 66 | 152 | 1.7 | 2.6 | 0.00 | 0.00 | 0.00 | 51 | 1029.3 |
| 20260508095023 | 68 | 150 | 2.6 | 3.5 | 0.00 | 0.00 | 0.00 | 49 | 1029.2 |
| 20260508094020 | 68 | 146 | 2.6 | 4.3 | 0.00 | 0.00 | 0.00 | 48 | 1029.2 |
| 20260508093018 | 69 | 137 | 2.6 | 4.3 | 0.00 | 0.00 | 0.00 | 47 | 1029.2 |
| 20260508092035 | 70 | 121 | 1.7 | 4.3 | 0.00 | 0.00 | 0.00 | 48 | 1028.9 |
| 20260508091032 | 71 | 117 | 1.7 | 4.3 | 0.00 | 0.00 | 0.00 | 47 | 1029.0 |
| 20260508090029 | 71 | 85 | 1.7 | 5.2 | 0.00 | 0.00 | 0.00 | 46 | 1028.8 |
| 20260508085026 | 72 | 83 | 0.9 | 4.3 | 0.00 | 0.00 | 0.00 | 45 | 1028.8 |
| 20260508084023 | 72 | 74 | 2.6 | 7.8 | 0.00 | 0.00 | 0.00 | 45 | 1028.8 |
| 20260508083019 | 73 | 72 | 2.6 | 5.2 | 0.00 | 0.00 | 0.00 | 44 | 1028.8 |
| 20260508082016 | 73 | 28 | 1.7 | 3.5 | 0.00 | 0.00 | 0.00 | 43 | 1028.8 |
| 20260508081034 | 73 | 59 | 1.7 | 4.3 | 0.00 | 0.00 | 0.00 | 44 | 1028.8 |
| 20260508080029 | 73 | 59 | 1.7 | 5.2 | 0.00 | 0.00 | 0.00 | 43 | 1028.8 |
| 20260508075025 | 74 | 51 | 0.9 | 4.3 | 0.00 | 0.00 | 0.00 | 43 | 1028.7 |
| 20260508074019 | 74 | 61 | 1.7 | 6.1 | 0.00 | 0.00 | 0.00 | 43 | 1028.8 |
| 20260508073016 | 74 | 87 | 1.7 | 4.3 | 0.00 | 0.00 | 0.00 | 43 | 1028.8 |
| 20260508072033 | 73 | 51 | 2.6 | 7.8 | 0.00 | 0.00 | 0.00 | 44 | 1028.9 |
| 20260508071032 | 73 | 65 | 2.6 | 8.7 | 0.00 | 0.00 | 0.00 | 44 | 1028.9 |
| 20260508070025 | 74 | 69 | 1.7 | 5.2 | 0.00 | 0.00 | 0.00 | 43 | 1029.0 |
| 20260508065022 | 73 | 65 | 1.7 | 6.1 | 0.00 | 0.00 | 0.00 | 44 | 1028.9 |
| 20260508064019 | 73 | 66 | 2.6 | 6.1 | 0.00 | 0.00 | 0.00 | 45 | 1029.0 |
| 20260508063016 | 73 | 55 | 1.7 | 7.8 | 0.00 | 0.00 | 0.00 | 44 | 1029.2 |
| 20260508062033 | 73 | 33 | 0.9 | 3.5 | 0.00 | 0.00 | 0.00 | 45 | 1029.1 |
| 20260508061031 | 73 | 12 | 1.7 | 5.2 | 0.00 | 0.00 | 0.00 | 45 | 1029.3 |
| 20260508060028 | 72 | 69 | 1.7 | 4.3 | 0.00 | 0.00 | 0.00 | 47 | 1029.5 |
| 20260508055025 | 72 | 52 | 1.7 | 6.1 | 0.00 | 0.00 | 0.00 | 47 | 1029.6 |
| 20260508054022 | 72 | 330 | 1.7 | 4.3 | 0.00 | 0.00 | 0.00 | 46 | 1029.5 |
| 20260508053019 | 73 | 70 | 2.6 | 7.8 | 0.00 | 0.00 | 0.00 | 46 | 1029.8 |
| 20260508052016 | 73 | 56 | 1.7 | 4.3 | 0.00 | 0.00 | 0.00 | 46 | 1029.8 |
| 20260508051034 | 72 | 8 | 1.7 | 7.0 | 0.00 | 0.00 | 0.00 | 46 | 1030.1 |
| 20260508050031 | 72 | 64 | 1.7 | 5.2 | 0.00 | 0.00 | 0.00 | 46 | 1030.3 |
| 20260508045029 | 71 | 5 | 1.7 | 4.3 | 0.00 | 0.00 | 0.00 | 47 | 1030.4 |
| 20260508044026 | 71 | 352 | 0.9 | 3.5 | 0.00 | 0.00 | 0.00 | 49 | 1030.5 |
| 20260508043023 | 70 | 79 | 1.7 | 7.0 | 0.00 | 0.00 | 0.00 | 50 | 1030.7 |
| 20260508042021 | 70 | 357 | 1.7 | 3.5 | 0.00 | 0.00 | 0.00 | 50 | 1030.9 |
| 20260508041018 | 70 | 62 | 1.7 | 5.2 | 0.00 | 0.00 | 0.00 | 50 | 1031.3 |
| 20260508040035 | 70 | 15 | 1.7 | 5.2 | 0.00 | 0.00 | 0.00 | 50 | 1031.4 |
| 20260508035033 | 70 | 43 | 1.7 | 5.2 | 0.00 | 0.00 | 0.00 | 51 | 1031.6 |
| 20260508034030 | 69 | 39 | 2.6 | 6.1 | 0.00 | 0.00 | 0.00 | 51 | 1032.0 |
| 20260508033027 | 69 | 2 | 0.9 | 3.5 | 0.00 | 0.00 | 0.00 | 50 | 1032.1 |
| 20260508032025 | 69 | 14 | 1.7 | 3.5 | 0.00 | 0.00 | 0.00 | 52 | 1032.2 |
| 20260508031022 | 69 | 7 | 1.7 | 4.3 | 0.00 | 0.00 | 0.00 | 52 | 1032.2 |
| 20260508030020 | 68 | 21 | 1.7 | 3.5 | 0.00 | 0.00 | 0.00 | 53 | 1032.3 |
| 20260508025018 | 67 | 6 | 1.7 | 4.3 | 0.00 | 0.00 | 0.00 | 54 | 1032.5 |